This is the latest recevied weather packets stored in our database for station/object KT5AL. If no packets are shown the sender has not sent any weather packets the latest 1 day(s).
| Time | Temp. | Humidity | Pressure | Rain* | Wind** | Luminosity | Snow |
|---|---|---|---|---|---|---|---|
| 1777994406 | 23.89° C | 85% | 1002.9 hPa | 0 mm | 7.6 m/s, 202° | - | - |
| 1777994103 | 23.89° C | 85% | 1002.9 hPa | 0 mm | 9.39 m/s, 180° | - | - |
| 1777993807 | 23.89° C | 86% | 1002.9 hPa | 0 mm | 8.05 m/s, 180° | - | - |
| 1777993508 | 23.89° C | 87% | 1003.3 hPa | 0 mm | 6.26 m/s, 202° | - | - |
| 1777993204 | 23.89° C | 88% | 1003.3 hPa | 0 mm | 6.26 m/s, 180° | - | - |
| 1777992907 | 23.33° C | 89% | 1003.6 hPa | 0 mm | 6.71 m/s, 202° | - | - |
| 1777992604 | 23.33° C | 89% | 1003.6 hPa | 0 mm | 7.15 m/s, 202° | - | - |
| 1777992307 | 23.33° C | 91% | 1003.6 hPa | 0 mm | 6.71 m/s, 180° | - | - |
| 1777992008 | 22.78° C | 91% | 1003.6 hPa | 0 mm | 7.15 m/s, 202° | - | - |
| 1777991704 | 22.78° C | 93% | 1003.6 hPa | 0 mm | 6.26 m/s, 202° | - | - |
| 1777991408 | 22.78° C | 94% | 1003.6 hPa | 0 mm | 5.81 m/s, 202° | - | - |
| 1777991103 | 22.78° C | 94% | 1003.9 hPa | 0 mm | 8.05 m/s, 180° | - | - |
| 1777990806 | 22.22° C | 95% | 1003.9 hPa | 0 mm | 7.15 m/s, 202° | - | - |
| 1777990503 | 22.22° C | 96% | 1003.6 hPa | 0 mm | 6.26 m/s, 180° | - | - |
| 1777990206 | 22.22° C | 96% | 1003.6 hPa | 0 mm | 7.6 m/s, 180° | - | - |
| 1777989903 | 22.22° C | 96% | 1003.9 hPa | 0 mm | 7.15 m/s, 180° | - | - |
| 1777989607 | 22.22° C | 96% | 1003.9 hPa | 0 mm | 6.71 m/s, 202° | - | - |
| 1777989303 | 22.22° C | 97% | 1003.9 hPa | 0 mm | 4.47 m/s, 180° | - | - |
| 1777989006 | 21.67° C | 97% | 1003.9 hPa | 0 mm | 4.47 m/s, 180° | - | - |
| 1777988703 | 21.67° C | 99% | 1004.3 hPa | 0 mm | 4.47 m/s, 202° | - | - |
| 1777988406 | 21.67° C | 99% | 1004.3 hPa | 0 mm | 6.71 m/s, 180° | - | - |
| 1777988103 | 21.67° C | 99% | 1003.9 hPa | 0 mm | 5.36 m/s, 202° | - | - |
| 1777987805 | 21.67° C | 100% | 1003.9 hPa | 0 mm | 5.81 m/s, 180° | - | - |
| 1777987508 | 21.11° C | 100% | 1004.3 hPa | 0 mm | 6.71 m/s, 180° | - | - |
| 1777987231 | 21.11° C | 100% | 1004.3 hPa | 0 mm | 6.71 m/s, 180° | - | - |
* Rain latest hour (hover to see other rain measurements)
** Current wind speed in m/s (hover to see current wind gust speed)